Weather History for St. Paul, MN

Change the Weather History Date:

Monday, December 24, 2012

  Actual Average Record
Temperature  
Mean Temperature 12 °F -  
Max Temperature 18 °F 23 °F 42 °F (2006)
Min Temperature 6 °F 9 °F -11 °F (2000)
Degree Days  
Heating Degree Days 53    
Moisture  
Dew Point 6 °F    
Average Humidity 67    
Maximum Humidity 77    
Minimum Humidity 50    
Precipitation  
Precipitation 0.00 in - - ()
Sea Level Pressure  
Sea Level Pressure 30.14 in    
Wind  
Wind Speed 7 mph (NNW)    
Max Wind Speed 13 mph    
Max Gust Speed -    
Visibility 8 miles    
Events Snow    
Averages and records for this station are not official NWS values.
T = Trace of Precipitation, MM = Missing Value Source: NWS Daily Summary

Daily Weather History Graph

Daily Weather History Graph

Search for Another Location

Airport:

Trip Planner

Search our weather history database for the weather conditions in past years. The results will help you decide how hot, cold, wet, or windy it might be!

Date:

Astronomy

Dec. 24, 2012 Rise Set
Actual Time 7:48 AM CST 4:35 PM CST
Civil Twilight 7:14 AM CST 5:09 PM CST
Nautical Twilight 6:37 AM CST 5:46 PM CST
Astronomical Twilight 6:01 AM CST 6:22 PM CST
Moon 2:06 PM CST (12/24) 4:24 AM CST (12/24)
Length of Visible Light 9h 54m
Length of Day
8h 46m
Waxing Gibbous, 88% of the Moon is Illuminated
Dec 24
Waxing Gibbous
Dec 28
Full
Jan 4
Last Quarter
Jan 11
New
Jan 18
First Quarter

Hourly Weather History & Observations

Time (CST) Temp. Windchill Dew Point Humidity Pressure Visibility Wind Dir Wind Speed Gust Speed Precip Events Conditions
12:53 AM 18.0 °F 12.7 °F 7.0 °F 62% 30.07 in 10.0 mi Variable 3.5 mph - N/A   Overcast
1:53 AM 17.1 °F 10.0 °F 7.0 °F 65% 30.06 in 10.0 mi NE 4.6 mph - N/A   Overcast
2:53 AM 17.1 °F 11.7 °F 8.1 °F 68% 30.07 in 10.0 mi North 3.5 mph - N/A   Overcast
3:53 AM 17.1 °F 10.0 °F 8.1 °F 68% 30.06 in 10.0 mi Variable 4.6 mph - N/A   Overcast
4:53 AM 17.1 °F 5.8 °F 8.1 °F 68% 30.06 in 10.0 mi North 9.2 mph - N/A   Overcast
5:53 AM 15.8 °F 3.4 °F 8.6 °F 73% 30.03 in 10.0 mi NNE 10.4 mph - N/A   Overcast
6:27 AM 15.8 °F 3.4 °F 8.6 °F 73% 30.05 in 2.0 mi North 10.4 mph - 0.00 in Snow Light Snow
6:53 AM 15.1 °F 4.2 °F 9.0 °F 77% 30.09 in 2.0 mi North 8.1 mph - 0.00 in Snow Light Snow
7:20 AM 15.8 °F 4.2 °F 8.6 °F 73% 30.05 in 1.8 mi North 9.2 mph - 0.00 in Snow Light Snow
7:30 AM 15.8 °F 5.1 °F 8.6 °F 73% 30.05 in 2.5 mi North 8.1 mph - 0.00 in Snow Light Snow
7:38 AM 15.8 °F 4.2 °F 8.6 °F 73% 30.05 in 3.0 mi North 9.2 mph - 0.00 in Snow Light Snow
7:53 AM 15.1 °F 6.4 °F 9.0 °F 77% 30.09 in 5.0 mi North 5.8 mph - 0.00 in Snow Light Snow
8:28 AM 15.8 °F 5.1 °F 8.6 °F 73% 30.06 in 1.8 mi North 8.1 mph - 0.00 in Snow Light Snow
8:38 AM 15.8 °F 4.2 °F 8.6 °F 73% 30.07 in 2.5 mi North 9.2 mph - 0.00 in Snow Light Snow
8:49 AM 15.8 °F 6.1 °F 8.6 °F 73% 30.07 in 3.0 mi North 6.9 mph - 0.00 in Snow Light Snow
8:53 AM 15.1 °F 3.3 °F 8.1 °F 74% 30.11 in 4.0 mi North 9.2 mph - 0.00 in Snow Light Snow
9:53 AM 15.1 °F 5.2 °F 7.0 °F 70% 30.12 in 10.0 mi North 6.9 mph - 0.00 in   Overcast
10:53 AM 17.1 °F 5.0 °F 7.0 °F 65% 30.14 in 10.0 mi NNW 10.4 mph - N/A   Overcast
11:53 AM 18.0 °F 4.8 °F 8.1 °F 65% 30.14 in 10.0 mi NW 12.7 mph - N/A   Mostly Cloudy
12:53 PM 18.0 °F 6.1 °F 8.1 °F 65% 30.14 in 10.0 mi NNW 10.4 mph - N/A   Partly Cloudy
1:53 PM 18.0 °F 5.4 °F 7.0 °F 62% 30.14 in 10.0 mi NNW 11.5 mph - N/A   Clear
2:53 PM 18.0 °F 6.9 °F 1.9 °F 50% 30.15 in 10.0 mi NNW 9.2 mph - N/A   Clear
3:53 PM 17.1 °F 4.3 °F 1.9 °F 52% 30.16 in 10.0 mi NNW 11.5 mph - N/A   Clear
4:53 PM 14.0 °F -0.2 °F 1.0 °F 56% 30.19 in 10.0 mi NW 12.7 mph - N/A   Clear
5:53 PM 12.9 °F -0.2 °F -0.0 °F 56% 30.22 in 10.0 mi NNW 10.4 mph - N/A   Clear
6:53 PM 10.9 °F -1.8 °F -0.0 °F 61% 30.25 in 10.0 mi NW 9.2 mph - N/A   Clear
7:53 PM 10.0 °F -3.7 °F -0.0 °F 64% 30.27 in 10.0 mi NW 10.4 mph - N/A   Clear
8:53 PM 8.1 °F -6.2 °F -0.0 °F 70% 30.30 in 10.0 mi NW 10.4 mph - N/A   Clear
9:53 PM 8.1 °F -5.3 °F -0.0 °F 70% 30.32 in 10.0 mi NW 9.2 mph - N/A   Clear
10:53 PM 6.1 °F -8.7 °F -0.9 °F 73% 30.33 in 10.0 mi NW 10.4 mph - N/A   Clear
11:53 PM 6.1 °F -6.8 °F -2.0 °F 69% 30.34 in 10.0 mi NNW 8.1 mph - N/A   Clear